Meteo Giornale » Osservazioni meteo Stati Uniti (USA) » Philadelphia
ore: 15:54 - Osservazioni Meteo Philadelphia
Lat. 39° 52' N Lon. 75° 13' W Alt. 6 metri s.l.m.
33 °C
Nuvoloso
Temp. 24 Ore
24 °C
33 °C
Sud-Ovest
16.7 Km/h
Dew point 23 °C
Umidità 55 %
Visibilità 10 Km
Il sole sorge alle ore 06:29
Il sole tramonta alle ore 19:32
| Data e Ora | Cielo e Fenomeni | T °C | DP °C | Um. % | Pres. hPa | Vis. km | Vento km/h | |
|---|---|---|---|---|---|---|---|---|
| Oggi h: 15:54 | Nuvoloso | 33 | 23 | 55 | 1013 | 10 | SO 16.7 | |
| Oggi h: 14:54 | Nuvoloso | 32 | 23 | 59 | 1014 | 10 | O/SO 18.5 | |
| Oggi h: 13:54 | Nuvoloso | 31 | 23 | 62 | 1014 | 10 | SO 14.8 | |
| Oggi h: 12:54 | Pioggia | 29 | 23 | 70 | 1015 | 10 | N 5.5 | |
| Oggi h: 11:54 | Molto Nuvoloso | 28 | 23 | 74 | 1015 | 10 | N 5.5 | |
| Oggi h: 10:54 | Molto Nuvoloso | 28 | 23 | 74 | 1016 | 10 | N 9.3 | |
| Oggi h: 09:54 | Coperto | 27 | 23 | 78 | 1015 | 10 | SO 13 | |
| Oggi h: 08:54 | Molto Nuvoloso | 27 | 23 | 78 | 1016 | 10 | SO 13 | |
| Oggi h: 07:54 | Nuvoloso | 24 | 23 | 94 | 1016 | 10 | S/SO 7.4 | |
| Oggi h: 06:54 | Molto Nuvoloso | 24 | 22 | 88 | 1016 | 10 | SO 9.3 | |
| Oggi h: 05:54 | Coperto | 24 | 22 | 88 | 1016 | 10 | S/SO 11.1 | |
| Oggi h: 05:28 | Molto Nuvoloso | 24 | 22 | 88 | 1016 | 13 | S/SO 7.4 | |
| Oggi h: 04:54 | Foschia | 24 | 22 | 88 | 1016 | 10 | SO 7.4 | |
| Oggi h: 04:44 | Foschia | 24 | 22 | 88 | 1016 | 10 | SO 9.3 | |
| Oggi h: 03:54 | Foschia | 24 | 22 | 88 | 1016 | 10 | S/SO 13 | |
| Oggi h: 02:54 | Foschia | 24 | 22 | 88 | 1017 | 10 | S/SO 11.1 | |
| Oggi h: 02:46 | Foschia | 24 | 22 | 88 | 1017 | 10 | S/SO 11.1 | |
| Oggi h: 01:54 | Foschia | 24 | 22 | 88 | 1017 | 10 | S 13 | |
| Oggi h: 01:28 | Foschia | 24 | 22 | 88 | 1017 | 10 | S 11.1 | |
| Oggi h: 00:54 | Coperto | 24 | 22 | 88 | 1018 | 11 | N 5.5 | |
| Oggi h: 00:41 | Coperto | 24 | 22 | 88 | 1018 | 11 | S 7.4 | |
| Oggi h: 00:28 | Coperto | 24 | 22 | 88 | 1018 | 10 | S 7.4 | |
| Oggi h: 00:08 | Coperto | 24 | 22 | 88 | 1018 | 10 | S 7.4 | |
| Ieri h: 23:54 | Coperto | 24 | 22 | 88 | 1018 | 10 | N 5.5 | |
| Ieri h: 23:15 | Coperto | 24 | 22 | 88 | 1018 | 10 | N 5.5 | |
| Ieri h: 23:02 | Molto Nuvoloso | 24 | 22 | 88 | 1018 | 10 | S 9.3 | |
| Ieri h: 22:54 | Molto Nuvoloso | 24 | 22 | 88 | 1018 | 10 | S 9.3 | |
| Ieri h: 21:54 | Molto Nuvoloso | 25 | 21 | 78 | 1018 | 10 | S/SE 7.4 | |
| Ieri h: 20:54 | Molto Nuvoloso | 25 | 20 | 73 | 1018 | 10 | N 5.5 | |
| Ieri h: 19:54 | Molto Nuvoloso | 26 | 19 | 65 | 1017 | 10 | S 7.4 | |
| Ieri h: 18:54 | Molto Nuvoloso | 27 | 19 | 61 | 1018 | 10 | S 7.4 | |
| Ieri h: 17:54 | Molto Nuvoloso | 27 | 19 | 61 | 1018 | 10 | S/SO 9.3 | |
| Ieri h: 16:54 | Molto Nuvoloso | 27 | 18 | 57 | 1018 | 10 | N 0 | |



